Location: *
(48.8667°N, 2.3331°E)
Time: 12:41:25
(UTC+00:00)

Cosmos 1825 - Pass Details

Date: 09 April 2020
Orbit: 502 x 509 km, 82.5° (Epoch: 02 June)

Event Time Altitude Azimuth Distance (km) Brightness Sun altitude
Rises 21:35:19 0° 346° (NNW) 2,630 6.8 -25.7°
Reaches altitude 10° 21:37:29 10° 342° (NNW) 1,738 5.8 -25.9°
Enters shadow 21:40:21 43° 311° (NW) 726 3.3 -26.2°
